ENY3955 MMZH-KPHX

Flight info

Callsign ENY3955
Flight time N/A
Altitude 34000
Route EBGAB4 EBGAB UJ27 GDL UJ3 MZT UJ7 CUL UT12 VYLLA DCT TUS DCT HOTTT PINNG1
Aircraft E75L/M-SDE3GILORVW/S

Departure

Time 2026-04-12 01:23
Airport Ixtapa-Zihuatanejo International Airport (MMZH)

Arrival

Time N/A
Airport Phoenix Sky Harbor International Airport (KPHX)
Time Latitude Longitude Altitude Speed Heading
2026-04-12 00:55 17.60536 -101.46395 24 ft 0 kts 358°
2026-04-12 01:14 17.60526 -101.46395 24 ft 2 kts 359°
2026-04-12 01:15 17.60510 -101.46394 28 ft 2 kts
2026-04-12 01:15 17.60493 -101.46394 25 ft 2 kts 359°
2026-04-12 01:15 17.60483 -101.46396 28 ft 0 kts 46°
2026-04-12 01:17 17.60484 -101.46396 28 ft 1 kts 46°
2026-04-12 01:18 17.60486 -101.46387 27 ft 3 kts 88°
2026-04-12 01:18 17.60484 -101.46345 25 ft 9 kts 90°
2026-04-12 01:18 17.60439 -101.46294 27 ft 14 kts 184°
2026-04-12 01:18 17.60340 -101.46258 27 ft 17 kts 123°
2026-04-12 01:19 17.60275 -101.46146 26 ft 19 kts 122°
2026-04-12 01:19 17.60202 -101.46029 27 ft 20 kts 124°
2026-04-12 01:19 17.60158 -101.45889 27 ft 22 kts 92°
2026-04-12 01:19 17.60153 -101.45723 29 ft 24 kts 91°
2026-04-12 01:20 17.60149 -101.45540 29 ft 27 kts 92°
2026-04-12 01:20 17.60144 -101.45337 30 ft 29 kts 91°
2026-04-12 01:20 17.60139 -101.45123 32 ft 30 kts 89°
2026-04-12 01:20 17.60162 -101.44957 31 ft 20 kts 59°
2026-04-12 01:21 17.60158 -101.44891 32 ft 5 kts 183°
2026-04-12 01:21 17.60133 -101.44917 32 ft 6 kts 259°
2026-04-12 01:21 17.60131 -101.44936 31 ft 0 kts 271°
2026-04-12 01:22 17.60137 -101.45144 32 ft 70 kts 272°
2026-04-12 01:22 17.60159 -101.45946 27 ft 148 kts 271°
2026-04-12 01:22 17.60192 -101.47180 545 ft 180 kts 267°
2026-04-12 01:23 17.60024 -101.48480 1694 ft 181 kts 260°
2026-04-12 01:23 17.59758 -101.49837 2605 ft 199 kts 258°
2026-04-12 01:23 17.59529 -101.51311 3494 ft 213 kts 264°
2026-04-12 01:23 17.59453 -101.52928 4214 ft 230 kts 266°
2026-04-12 01:24 17.59405 -101.54650 4998 ft 244 kts 264°
2026-04-12 01:24 17.59233 -101.56451 5712 ft 259 kts 263°
2026-04-12 01:24 17.59026 -101.58383 6424 ft 274 kts 262°
2026-04-12 01:24 17.58797 -101.60404 7171 ft 283 kts 262°
2026-04-12 01:25 17.58705 -101.62488 7991 ft 291 kts 279°
2026-04-12 01:25 17.59481 -101.64446 8817 ft 296 kts 308°
2026-04-12 01:25 17.61071 -101.65808 9618 ft 297 kts 337°
2026-04-12 01:25 17.63086 -101.66222 10217 ft 302 kts
2026-04-12 01:26 17.65120 -101.65593 10599 ft 314 kts 32°
2026-04-12 01:26 17.66901 -101.64239 11172 ft 318 kts 38°
2026-04-12 01:26 17.68691 -101.62844 11853 ft 321 kts 39°
2026-04-12 01:26 17.70389 -101.61312 12554 ft 324 kts 43°
2026-04-12 01:27 17.72078 -101.59731 13299 ft 326 kts 40°
2026-04-12 01:27 17.74104 -101.58623 13964 ft 334 kts 15°
2026-04-12 01:27 17.76405 -101.58522 14607 ft 342 kts 351°
2026-04-12 01:27 17.78680 -101.59292 15329 ft 347 kts 339°
2026-04-12 01:28 17.80867 -101.60399 16021 ft 352 kts 332°
2026-04-12 01:28 17.83009 -101.61675 16709 ft 355 kts 330°
2026-04-12 01:28 17.85155 -101.62985 17369 ft 359 kts 329°
2026-04-12 01:28 17.87313 -101.64322 17988 ft 362 kts 329°
2026-04-12 01:29 17.89489 -101.65675 18574 ft 365 kts 329°
2026-04-12 01:29 17.91690 -101.67032 19130 ft 368 kts 329°
2026-04-12 01:29 17.93907 -101.68403 19689 ft 371 kts 328°
2026-04-12 01:29 17.96141 -101.69787 20252 ft 374 kts 328°
2026-04-12 01:30 17.98397 -101.71182 20803 ft 378 kts 328°
2026-04-12 01:30 18.00665 -101.72587 21363 ft 381 kts 327°
2026-04-12 01:30 18.02953 -101.74006 21910 ft 384 kts 328°
2026-04-12 01:30 18.05260 -101.75434 22445 ft 387 kts 327°
2026-04-12 01:31 18.07556 -101.76875 22968 ft 389 kts 326°
2026-04-12 01:31 18.09926 -101.78363 23459 ft 393 kts 329°
2026-04-12 01:31 18.12276 -101.79779 23897 ft 396 kts 327°
2026-04-12 01:31 18.14654 -101.81254 24337 ft 398 kts 327°
2026-04-12 01:32 18.17043 -101.82734 24766 ft 401 kts 327°
2026-04-12 01:32 18.19454 -101.84229 25214 ft 403 kts 327°
2026-04-12 01:32 18.21878 -101.85733 25612 ft 406 kts 327°
2026-04-12 01:32 18.24312 -101.87245 26046 ft 408 kts 327°
2026-04-12 01:33 18.26770 -101.88771 26435 ft 410 kts 326°
2026-04-12 01:33 18.29231 -101.90298 26855 ft 412 kts 326°
2026-04-12 01:33 18.31708 -101.91837 27247 ft 414 kts 326°
2026-04-12 01:33 18.34199 -101.93387 27621 ft 417 kts 326°
2026-04-12 01:34 18.36702 -101.94944 28016 ft 419 kts 326°
2026-04-12 01:34 18.39218 -101.96510 28389 ft 421 kts 326°
2026-04-12 01:34 18.41749 -101.98085 28755 ft 423 kts 326°
2026-04-12 01:34 18.44289 -101.99666 29109 ft 426 kts 326°
2026-04-12 01:35 18.46815 -102.01241 29434 ft 428 kts 326°
2026-04-12 01:35 18.49416 -102.02862 29770 ft 430 kts 325°
2026-04-12 01:35 18.51973 -102.04457 29865 ft 437 kts 326°
2026-04-12 01:35 18.54606 -102.06096 30133 ft 439 kts 325°
2026-04-12 01:36 18.57233 -102.07734 30451 ft 439 kts 325°
2026-04-12 01:36 18.59866 -102.09377 30765 ft 440 kts 325°
2026-04-12 01:36 18.62492 -102.11020 31072 ft 440 kts 324°
2026-04-12 01:36 18.65126 -102.12662 31422 ft 439 kts 324°
2026-04-12 01:37 18.67762 -102.14310 31652 ft 441 kts 324°
2026-04-12 01:37 18.70400 -102.15960 31965 ft 441 kts 324°
2026-04-12 01:37 18.73041 -102.17607 32234 ft 442 kts 323°
2026-04-12 01:37 18.75685 -102.19261 32520 ft 442 kts 323°
2026-04-12 01:38 18.78330 -102.20916 32800 ft 442 kts 323°
2026-04-12 01:38 18.80990 -102.22581 33076 ft 443 kts 323°
2026-04-12 01:38 18.83633 -102.24236 33367 ft 443 kts 323°
2026-04-12 01:38 18.86253 -102.25872 33609 ft 442 kts 322°
2026-04-12 01:39 18.88897 -102.27531 33704 ft 437 kts 322°
2026-04-12 01:39 18.94160 -102.30838 33847 ft 446 kts 322°
2026-04-12 01:40 18.99533 -102.34204 33866 ft 449 kts 322°
2026-04-12 01:40 19.04901 -102.37575 33869 ft 448 kts 322°
2026-04-12 01:41 19.10242 -102.40931 33874 ft 449 kts 322°
2026-04-12 01:41 19.15614 -102.44309 33880 ft 449 kts 322°
2026-04-12 01:42 19.20990 -102.47693 33881 ft 449 kts 322°
2026-04-12 01:42 19.26371 -102.51083 33891 ft 456 kts 322°